Location: Newark
(12.4436°N, 0.6167°W)
Time: 08:13:26
(UTC+00:00)

Vanguard 2 - Pass Details

Date: 11 December 2019
Orbit: 553 x 2938 km, 32.9° (Epoch: 27 January)

Event Time Altitude Azimuth Distance (km) Brightness Sun altitude
Rises 03:56:33 0° 293° (WNW) 6,458 - -32.0°
Reaches altitude 10° 04:01:22 10° 302° (WNW) 5,624 - -30.9°
Exits shadow 04:10:04 28° 327° (NNW) 4,407 10.9 -28.9°
Maximum altitude 04:17:00 36° 3° (N) 3,953 10.9 -27.3°
Drops below altitude 10° 04:31:05 10° 65° (ENE) 5,093 12.3 -24.1°
Sets 04:35:10 0° 73° (ENE) 5,811 12.8 -23.1°
